Regional Weather Roundup
Issued by NWS

Home | Current Version | Previous Version | Graphics & Text | Print | Product List | Glossary On
Versions: 1 2 3 4 5 6 7 8 9 10 11 12 13 14 15 16 17 18 19 20 21 22 23 24 25 26 27 28 29 30 31 32 33 34 35 36 37 38 39 40 41 42 43 44 45 46 47 48 49 50
000
ASUS45 KCYS 281410
RWRWY

WYOMING REGIONAL WEATHER ROUNDUP
NATIONAL WEATHER SERVICE CHEYENNE WY
700 AM MST SAT FEB 28 2015

NOTE:  "FAIR" INDICATES FEW OR NO CLOUDS BELOW 12,000 FEET
WITH NO SIGNIFICANT WEATHER AND/OR OBSTRUCTIONS TO VISIBILITY.

WYZ001-281500-
YELLOWSTONE NATIONAL PARK

CITY           SKY/WX    TMP DP  RH WIND       PRES   REMARKS
LK YELLOWSTONE   N/A    -14 -19  79 CALM      29.79R
W YELLOWSTONE  NOT AVBL

$$
WYZ002>013-054>058-071-098>099-281500-
NORTHERN WYOMING

CITY           SKY/WX    TMP DP  RH WIND       PRES   REMARKS
JACKSON        MOCLDY     9   5  85 N15       29.79S WCI  -8
CODY           CLOUDY    10   9  92 NE5       29.98S WCI   2
GREYBULL       CLOUDY    15   8  73 W9        30.03S WCI   3
WORLAND        CLOUDY    15   8  73 N3        30.02R
SHERIDAN       CLOUDY    15   7  70 NW8       30.08R WCI   4
BUFFALO        MOCLDY     5   0  79 SW6       30.01S WCI  -6
GILLETTE       FAIR       6   2  83 W7        30.04R WCI  -6
HULETT         PTSUNNY    9   3  78 S7        30.05R WCI  -3
NEWCASTLE      FAIR       9   5  85 NW10      30.03R WCI  -6

$$
WYZ014>020-022>026-101>103-281500-
CENTRAL WYOMING

CITY           SKY/WX    TMP DP  RH WIND       PRES   REMARKS
BIG PINEY      LGT SNOW  14  10  84 CALM      29.78S FOG
PINEDALE       LGT SNOW  12  12 100 CALM      29.78S
DUBOIS         SNOW       5   3  92 CALM      29.81S VSB 1/2
LANDER         LGT SNOW  14  11  87 NE5       29.91R FOG     WCI   6
RIVERTON       CLOUDY    13  10  88 NE6       29.93R WCI   4
CASPER         LGT SNOW  11   6  81 NE13      29.96R WCI  -4
DOUGLAS        CLOUDY    12   7  80 N8        30.00R WCI   0

$$
WYZ021-027>030-104>119-281500-
SOUTHERN WYOMING

CITY           SKY/WX    TMP DP  RH WIND       PRES   REMARKS
EVANSTON       FAIR      16  13  88 E17       29.68F WCI   0
FORT BRIDGER   CLOUDY    13  12  95 NE7       29.77R WCI   3
ROCK SPRINGS   MOCLDY    11   7  84 NE13      29.78S WCI  -4
DIXON          PTSUNNY   15   9  75 E7        29.81R WCI   6
RAWLINS        MOCLDY     8   3  80 E3        29.82R
SARATOGA       PTSUNNY    3   0  85 CALM      29.81S
LARAMIE        FAIR      -3  -7  82 W3        29.80R
CHEYENNE       FAIR       9   3  77 NW6       29.88R WCI  -1
TORRINGTON     MOCLDY     7   2  80 CALM      30.01R
PINE BLUFFS    FAIR      -4  -8  84 MISG      29.94S

$$



USA.gov is the U.S. government's official web portal to all federal, state and local government web resources and services.